• In Czech Republic
  • List of Countries
  • For 7 days
  • Water Temperature
  • Satellite Maps
  • Weather Map
  • Weather Widgets
  • user-avatar
    Login

    Hourly Weather Kitzbuhel

    Today, 24 September, Monday

    Time Temperature Precipitation Wind Pressure Humidity
    00:00 +12°C° 2.6 mm 4 mps 677 mmHg 96%
    01:00 +10°C° 2.6 mm 4 mps 677 mmHg 97%
    02:00 +8°C° 0.9 mm 4 mps 678 mmHg 97%
    03:00 +8°C° 0.9 mm 3 mps 678 mmHg 97%
    04:00 +7°C° 0.9 mm 3 mps 679 mmHg 97%
    05:00 +7°C° 0.7 mm 3 mps 679 mmHg 96%
    06:00 +5°C° 0.7 mm 3 mps 680 mmHg 96%
    07:00 +5°C° 0.7 mm 3 mps 681 mmHg 95%
    08:00 +5°C° 0.2 mm 3 mps 682 mmHg 92%
    09:00 +5°C° 0.2 mm 3 mps 682 mmHg 89%
    10:00 +5°C° 0.2 mm 3 mps 683 mmHg 85%
    11:00 +7°C° 0.1 mm 3 mps 684 mmHg 82%
    12:00 +7°C° 0.1 mm 3 mps 684 mmHg 78%
    13:00 +8°C° 0.1 mm 3 mps 684 mmHg 74%
    14:00 +8°C° 0.1 mm 3 mps 684 mmHg 73%
    15:00 +8°C° 0.1 mm 3 mps 684 mmHg 72%
    16:00 +8°C° 0.1 mm 3 mps 684 mmHg 71%
    17:00 +6°C° 0.1 mm 2 mps 684 mmHg 77%
    18:00 +5°C° 0.1 mm 2 mps 685 mmHg 83%
    19:00 +4°C° 0.1 mm 2 mps 685 mmHg 90%
    20:00 +3°C° 0 mm 2 mps 685 mmHg 90%
    21:00 +3°C° 0 mm 2 mps 686 mmHg 90%
    22:00 +3°C° 0 mm 2 mps 686 mmHg 90%
    23:00 +3°C° 0 mm 2 mps 686 mmHg 91%

    Tomorrow, 25 September, Tuesday

    Time Temperature Precipitation Wind Pressure Humidity
    00:00 +2°C° 0 mm 2 mps 687 mmHg 91%
    01:00 +2°C° 0 mm 2 mps 687 mmHg 91%
    02:00 +3°C° 0 mm 1 mps 687 mmHg 91%
    03:00 +3°C° 0 mm 1 mps 687 mmHg 91%
    04:00 +2°C° 0 mm 1 mps 687 mmHg 91%
    05:00 +3°C° 0 mm 1 mps 687 mmHg 89%
    06:00 +3°C° 0 mm 1 mps 687 mmHg 86%
    07:00 +3°C° 0 mm 1 mps 688 mmHg 84%
    08:00 +5°C° 0 mm 1 mps 688 mmHg 75%
    09:00 +6°C° 0 mm 2 mps 688 mmHg 67%
    10:00 +8°C° 0 mm 2 mps 688 mmHg 58%
    11:00 +9°C° 0 mm 2 mps 688 mmHg 55%
    12:00 +10°C° 0 mm 2 mps 688 mmHg 51%
    13:00 +12°C° 0 mm 2 mps 688 mmHg 48%
    14:00 +12°C° 0 mm 2 mps 688 mmHg 50%
    15:00 +10°C° 0 mm 2 mps 688 mmHg 52%
    16:00 +10°C° 0 mm 2 mps 687 mmHg 54%
    17:00 +8°C° 0 mm 2 mps 687 mmHg 64%
    18:00 +6°C° 0 mm 1 mps 687 mmHg 74%
    19:00 +4°C° 0 mm 1 mps 687 mmHg 85%
    20:00 +4°C° 0 mm 1 mps 688 mmHg 84%
    21:00 +4°C° 0 mm 1 mps 688 mmHg 84%
    22:00 +3°C° 0 mm 1 mps 688 mmHg 83%
    23:00 +3°C° 0 mm 1 mps 688 mmHg 79%

    Day after tomorrow, 26 September, Wednesday

    Time Temperature Precipitation Wind Pressure Humidity
    00:00 +3°C° 0 mm 1 mps 688 mmHg 76%
    01:00 +3°C° 0 mm 1 mps 688 mmHg 72%
    02:00 +3°C° 0 mm 1 mps 688 mmHg 69%
    03:00 +3°C° 0 mm 1 mps 688 mmHg 65%
    04:00 +3°C° 0 mm 1 mps 688 mmHg 62%
    05:00 +4°C° 0 mm 1 mps 688 mmHg 59%
    06:00 +5°C° 0 mm 1 mps 688 mmHg 55%
    07:00 +5°C° 0 mm 1 mps 688 mmHg 52%
    08:00 +9°C° 0 mm 1 mps 689 mmHg 45%
    09:00 +12°C° 0 mm 1 mps 689 mmHg 39%
    10:00 +15°C° 0 mm 0 mps 689 mmHg 32%
    11:00 +18°C° 0 mm 1 mps 689 mmHg 32%
    12:00 +19°C° 0 mm 1 mps 689 mmHg 31%
    13:00 +20°C° 0 mm 1 mps 689 mmHg 31%
    14:00 +19°C° 0 mm 1 mps 689 mmHg 36%
    15:00 +19°C° 0 mm 1 mps 688 mmHg 42%
    16:00 +18°C° 0 mm 1 mps 688 mmHg 47%
    17:00 +14°C° 0 mm 1 mps 688 mmHg 58%
    18:00 +11°C° 0 mm 1 mps 687 mmHg 68%
    19:00 +8°C° 0 mm 1 mps 687 mmHg 78%
    20:00 +8°C° 0 mm 1 mps 687 mmHg 75%
    21:00 +8°C° 0 mm 1 mps 687 mmHg 71%
    22:00 +8°C° 0 mm 1 mps 688 mmHg 68%
    23:00 +8°C° 0 mm 1 mps 687 mmHg 64%

    27 September, Thursday

    Time Temperature Precipitation Wind Pressure Humidity
    00:00 +8°C° 0 mm 1 mps 687 mmHg 59%
    01:00 +8°C° 0 mm 1 mps 687 mmHg 55%
    02:00 +8°C° 0 mm 1 mps 687 mmHg 52%
    03:00 +8°C° 0 mm 1 mps 686 mmHg 49%
    04:00 +8°C° 0 mm 1 mps 686 mmHg 46%
    05:00 +8°C° 0 mm 1 mps 686 mmHg 46%
    06:00 +9°C° 0 mm 1 mps 686 mmHg 47%
    07:00 +9°C° 0 mm 1 mps 686 mmHg 48%
    08:00 +12°C° 0 mm 1 mps 687 mmHg 44%
    09:00 +16°C° 0 mm 1 mps 687 mmHg 39%
    10:00 +18°C° 0 mm 0 mps 688 mmHg 35%
    11:00 +21°C° 0 mm 1 mps 687 mmHg 35%
    12:00 +22°C° 0 mm 1 mps 687 mmHg 35%
    13:00 +22°C° 0 mm 1 mps 687 mmHg 34%
    14:00 +22°C° 0 mm 1 mps 686 mmHg 40%
    15:00 +21°C° 0 mm 1 mps 686 mmHg 45%
    16:00 +21°C° 0 mm 1 mps 685 mmHg 51%
    17:00 +18°C° 0 mm 1 mps 685 mmHg 61%
    18:00 +14°C° 0 mm 1 mps 684 mmHg 71%
    19:00 +11°C° 0 mm 1 mps 683 mmHg 81%
    20:00 +11°C° 0 mm 1 mps 683 mmHg 79%
    21:00 +10°C° 0 mm 1 mps 683 mmHg 78%
    22:00 +10°C° 0 mm 1 mps 683 mmHg 77%
    23:00 +10°C° 0 mm 1 mps 683 mmHg 75%

    28 September, Friday

    Time Temperature Precipitation Wind Pressure Humidity
    00:00 +10°C° 0 mm 1 mps 682 mmHg 74%
    01:00 +10°C° 0 mm 1 mps 682 mmHg 73%
    02:00 +9°C° 0 mm 1 mps 682 mmHg 71%
    03:00 +9°C° 0 mm 1 mps 681 mmHg 70%
    04:00 +9°C° 0 mm 1 mps 681 mmHg 68%
    05:00 +9°C° 0 mm 1 mps 681 mmHg 67%
    06:00 +9°C° 0 mm 1 mps 681 mmHg 66%
    07:00 +10°C° 0 mm 1 mps 681 mmHg 65%
    08:00 +13°C° 0 mm 1 mps 681 mmHg 57%
    09:00 +16°C° 0 mm 1 mps 682 mmHg 50%
    10:00 +20°C° 0 mm 1 mps 682 mmHg 43%
    11:00 +20°C° 0 mm 1 mps 682 mmHg 42%
    12:00 +21°C° 0 mm 1 mps 682 mmHg 42%
    13:00 +22°C° 0 mm 1 mps 682 mmHg 41%
    14:00 +21°C° 0 mm 1 mps 681 mmHg 46%
    15:00 +20°C° 0 mm 1 mps 681 mmHg 51%
    16:00 +20°C° 0 mm 1 mps 680 mmHg 56%
    17:00 +16°C° 0 mm 1 mps 680 mmHg 67%
    18:00 +13°C° 0 mm 1 mps 679 mmHg 78%
    19:00 +10°C° 0 mm 0 mps 679 mmHg 90%
    20:00 +10°C° 0 mm 1 mps 679 mmHg 91%
    21:00 +10°C° 0 mm 1 mps 680 mmHg 92%
    22:00 +10°C° 0 mm 1 mps 680 mmHg 93%
    23:00 +9°C° 0 mm 1 mps 680 mmHg 93%

    29 September, Saturday

    Time Temperature Precipitation Wind Pressure Humidity
    00:00 +9°C° 0 mm 1 mps 680 mmHg 94%
    01:00 +9°C° 0 mm 1 mps 680 mmHg 94%
    02:00 +9°C° 0 mm 1 mps 680 mmHg 95%
    03:00 +9°C° 0 mm 1 mps 680 mmHg 95%
    04:00 +8°C° 0 mm 1 mps 680 mmHg 96%
    05:00 +9°C° 0 mm 1 mps 680 mmHg 95%
    06:00 +9°C° 0 mm 1 mps 680 mmHg 94%
    07:00 +9°C° 0 mm 1 mps 681 mmHg 93%
    08:00 +11°C° 0 mm 1 mps 681 mmHg 83%
    09:00 +14°C° 0 mm 1 mps 681 mmHg 72%
    10:00 +16°C° 0 mm 1 mps 682 mmHg 62%
    11:00 +17°C° 0 mm 2 mps 682 mmHg 60%
    12:00 +18°C° 0 mm 2 mps 682 mmHg 57%
    13:00 +18°C° 0 mm 2 mps 682 mmHg 55%
    14:00 +18°C° 0 mm 2 mps 681 mmHg 58%
    15:00 +17°C° 0 mm 2 mps 681 mmHg 62%
    16:00 +17°C° 0 mm 2 mps 681 mmHg 65%
    17:00 +15°C° 0 mm 2 mps 681 mmHg 74%
    18:00 +13°C° 0 mm 2 mps 680 mmHg 84%
    19:00 +10°C° 0 mm 1 mps 680 mmHg 93%
    20:00 +10°C° 0 mm 1 mps 680 mmHg 92%
    21:00 +9°C° 0 mm 2 mps 680 mmHg 92%
    22:00 +9°C° 0 mm 2 mps 680 mmHg 92%
    23:00 +8°C° 0 mm 2 mps 680 mmHg 91%
    Show more

    3.3.7123123